Estación de Los Maquis

Ultimos registro cada 15 minutos 26
Estación Fecha / Hora Temperatura Humedad Lluvia Velocidad Dirección Radiación Presion
26 Los Maquis 08-05-2026 06:15 3,2 95 0 0 194 0 1027,7
25 Los Maquis 08-05-2026 06:00 3,4 95 0 0 98 0 1027,9
24 Los Maquis 08-05-2026 05:45 3,3 94 0 0 158 0 1027,8
23 Los Maquis 08-05-2026 05:30 3,8 95 0 0 121 0 1027,6
22 Los Maquis 08-05-2026 05:15 4,1 95 0 0 142 0 1027,6
21 Los Maquis 08-05-2026 05:00 3,9 94 0 0 168 0 1027,4
20 Los Maquis 08-05-2026 04:45 4,4 95 0 0 121 0 1027,3
19 Los Maquis 08-05-2026 04:30 4,4 95 0 0 154 0 1027,1
18 Los Maquis 08-05-2026 04:15 4,3 94 0 0 180 0 1027,2
17 Los Maquis 08-05-2026 04:00 4,6 94 0 0 120 0 1027,3
16 Los Maquis 08-05-2026 03:45 4,7 94 0 0 120 0 1027,4
15 Los Maquis 08-05-2026 03:30 4,8 94 0 0 196 0 1027,5
14 Los Maquis 08-05-2026 03:15 4,9 94 0 0 106 0 1027,8
13 Los Maquis 08-05-2026 03:00 5 94 0 0 180 0 1027,9
12 Los Maquis 08-05-2026 02:45 5,2 93 0 0 180 0 1027,9
11 Los Maquis 08-05-2026 02:30 5,5 94 0 0 180 0 1028,1
10 Los Maquis 08-05-2026 02:15 5,5 93 0 0 102 0 1028,1
9 Los Maquis 08-05-2026 02:00 5,8 93 0 0 180 0 1028,4
8 Los Maquis 08-05-2026 01:45 5,9 93 0 0 190 0 1028,4
7 Los Maquis 08-05-2026 01:30 6,1 93 0 0 115 0 1028,8
6 Los Maquis 08-05-2026 01:15 6,2 93 0 0 180 0 1028,9
5 Los Maquis 08-05-2026 01:00 6,3 91 0 0 190 0 1029,2
4 Los Maquis 08-05-2026 00:45 6,7 91 0 0 240 0 1028,9
3 Los Maquis 08-05-2026 00:30 7,1 90 0 0 286 0 1028,8
2 Los Maquis 08-05-2026 00:15 7,6 90 0 0 40 0 1029,5
1 Los Maquis 08-05-2026 00:00 7,8 90 0 0 40 0 1029,2